Change the Weather History Date:

Wednesday, April 3, 2013

  Actual Average (KGAF) Record (KGAF)
Temperature  
Mean Temperature 24 °F -  
Max Temperature 39 °F 45 °F 74 °F (1991)
Min Temperature 10 °F 25 °F -6 °F (1975)
Degree Days  
Heating Degree Days 40    
Moisture  
Dew Point -34 °F    
Average Humidity 36    
Maximum Humidity 100    
Minimum Humidity 4    
Precipitation  
Precipitation 0.00 in - - ()
Sea Level Pressure  
Sea Level Pressure 30.04 in    
Wind  
Wind Speed 12 mph (SSW)    
Max Wind Speed 25 mph    
Max Gust Speed 31 mph    
Visibility 10 miles    
Events      
Averages and records for this station are not official NWS values.
T = Trace of Precipitation, MM = Missing Value Source: NWS Daily Summary

Daily Weather History Graph

Daily Weather History Graph

Search for Another Location

Airport or City:

Trip Planner

Search our weather history database for the weather conditions in past years. The results will help you decide how hot, cold, wet, or windy it might be!

Date:

Astronomy

Apr. 03, 2013 Rise Set
Actual Time 7:03 AM CDT 8:04 PM CDT
Civil Twilight 6:31 AM CDT 8:37 PM CDT
Nautical Twilight 5:52 AM CDT 9:15 PM CDT
Astronomical Twilight 5:11 AM CDT 9:56 PM CDT
Moon 3:17 AM CDT (4/3) 12:47 PM CDT (4/3)
Length of Visible Light 14h 05m
Length of Day
13h 01m
Last Quarter, 44% of the Moon is Illuminated
Apr 3
Last Quarter
Apr 10
New
Apr 18
First Quarter
Apr 25
Full
May 2
Last Quarter

Hourly Weather History & Observations

Time (CDT) Temp. Windchill Dew Point Humidity Pressure Visibility Wind Dir Wind Speed Gust Speed Precip Events Conditions
12:15 AM 14.0 °F 6.5 °F 14.0 °F 100% 30.29 in 10.0 mi South 4.6 mph - N/A   Clear
12:35 AM 12.2 °F 1.7 °F 12.2 °F 100% 30.28 in 10.0 mi South 6.9 mph - N/A   Clear
12:55 AM 10.4 °F -1.5 °F 10.4 °F 100% 30.27 in 10.0 mi South 8.1 mph - N/A   Clear
1:15 AM 10.4 °F -0.4 °F 10.4 °F 100% 30.27 in 10.0 mi South 6.9 mph - N/A   Clear
1:35 AM 12.2 °F 1.7 °F 12.2 °F 100% 30.26 in 8.0 mi South 6.9 mph - N/A   Clear
1:55 AM 10.4 °F -2.4 °F 10.4 °F 100% 30.25 in 7.0 mi South 9.2 mph - N/A   Clear
2:15 AM 12.2 °F 0.7 °F 12.2 °F 100% 30.24 in 8.0 mi South 8.1 mph - N/A   Clear
2:35 AM 10.4 °F -3.3 °F 10.4 °F 100% 30.24 in 9.0 mi South 10.4 mph - N/A   Clear
2:55 AM 15.8 °F 4.2 °F 15.8 °F 100% 30.23 in 10.0 mi South 9.2 mph - N/A   Clear
3:15 AM 12.2 °F 0.7 °F 12.2 °F 100% 30.22 in 10.0 mi South 8.1 mph - N/A   Clear
3:35 AM 14.0 °F 1.2 °F 14.0 °F 100% 30.21 in 10.0 mi South 10.4 mph - N/A   Clear
3:55 AM 15.8 °F 4.2 °F 15.8 °F 100% 30.21 in 10.0 mi South 9.2 mph - N/A   Partly Cloudy
4:15 AM 15.8 °F 3.4 °F 15.8 °F 100% 30.21 in 10.0 mi South 10.4 mph - N/A   Partly Cloudy
4:35 AM 15.8 °F 1.4 °F 15.8 °F 100% 30.19 in 10.0 mi South 13.8 mph - N/A   Clear
4:55 AM 15.8 °F 1.4 °F 15.8 °F 100% 30.18 in 10.0 mi South 13.8 mph - N/A   Clear
5:15 AM 15.8 °F 1.4 °F 15.8 °F 100% 30.18 in 10.0 mi South 13.8 mph - N/A   Clear
5:35 AM 15.8 °F 2.7 °F 15.8 °F 100% 30.17 in 10.0 mi South 11.5 mph - N/A   Clear
5:55 AM 17.6 °F 3.2 °F 17.6 °F 100% 30.17 in 10.0 mi South 15.0 mph - N/A   Clear
6:15 AM 17.6 °F 3.2 °F 17.6 °F 100% 30.15 in 10.0 mi South 15.0 mph - N/A   Clear
6:35 AM 17.6 °F 3.2 °F 17.6 °F 100% 30.15 in 10.0 mi South 15.0 mph - N/A   Partly Cloudy
6:55 AM 19.4 °F 4.5 °F 17.6 °F 93% 30.14 in 10.0 mi South 17.3 mph - N/A   Clear
7:15 AM 17.6 °F 2.7 °F 17.6 °F 100% 30.13 in 9.0 mi South 16.1 mph 20.7 mph N/A   Clear
7:35 AM 19.4 °F 5.0 °F -58.0 °F 4% 30.12 in 7.0 mi South 16.1 mph 23.0 mph N/A   Clear
7:55 AM 19.4 °F 5.0 °F -63.4 °F 4% 30.11 in 7.0 mi South 16.1 mph - N/A   Scattered Clouds
8:15 AM 19.4 °F 3.6 °F -67.0 °F 4% 30.10 in 9.0 mi South 19.6 mph 25.3 mph N/A   Partly Cloudy
8:35 AM 19.4 °F 3.6 °F -67.0 °F 4% 30.09 in 9.0 mi South 19.6 mph 25.3 mph N/A   Clear
8:55 AM 21.2 °F 4.9 °F -65.2 °F 4% 30.07 in 9.0 mi South 23.0 mph 27.6 mph N/A   Clear
9:15 AM 21.2 °F 5.2 °F -65.2 °F 4% 30.05 in 8.0 mi South 21.9 mph - N/A   Clear
9:35 AM 23.0 °F 7.6 °F -65.2 °F 4% 30.03 in 8.0 mi South 21.9 mph - N/A   Clear
9:55 AM 23.0 °F 6.9 °F -65.2 °F 4% 30.01 in 8.0 mi South 24.2 mph 31.1 mph N/A   Clear
10:15 AM 23.0 °F 7.6 °F -65.2 °F 4% 30.00 in 9.0 mi South 21.9 mph - N/A   Partly Cloudy
10:35 AM 24.8 °F 9.6 °F -63.4 °F 4% 29.99 in 9.0 mi South 23.0 mph 29.9 mph N/A   Partly Cloudy
10:55 AM 24.8 °F 9.0 °F -63.4 °F 4% 29.98 in 10.0 mi South 25.3 mph 31.1 mph N/A   Partly Cloudy
11:15 AM 26.6 °F 12.4 °F -63.4 °F 4% 29.97 in 9.0 mi South 21.9 mph 27.6 mph N/A   Mostly Cloudy
11:35 AM 26.6 °F 12.7 °F -63.4 °F 4% 29.97 in 10.0 mi South 20.7 mph 28.8 mph N/A   Scattered Clouds
11:55 AM 28.4 °F 15.1 °F -61.6 °F 4% 29.95 in 10.0 mi South 20.7 mph 26.5 mph N/A   Scattered Clouds
12:15 PM 28.4 °F 14.4 °F -61.6 °F 4% 29.94 in 10.0 mi South 23.0 mph 27.6 mph N/A   Partly Cloudy
12:35 PM 30.2 °F 17.4 °F -61.6 °F 4% 29.94 in 10.0 mi South 20.7 mph - N/A   Scattered Clouds
2:35 PM - - - N/A% 29.87 in - South 15.0 mph - N/A   Unknown
2:55 PM 35.6 °F 25.5 °F -56.2 °F 4% 29.90 in 10.0 mi SSW 17.3 mph 20.7 mph N/A   Unknown
3:15 PM 37.4 °F 27.8 °F -56.2 °F 4% 29.89 in 10.0 mi SSW 17.3 mph 21.9 mph N/A   Scattered Clouds
3:35 PM 37.4 °F 29.3 °F -56.2 °F 4% 29.90 in 10.0 mi SSW 12.7 mph - N/A   Scattered Clouds
3:55 PM 37.4 °F 29.8 °F -56.2 °F 4% 29.90 in 10.0 mi SSW 11.5 mph - N/A   Mostly Cloudy
4:15 PM 37.4 °F 28.5 °F -56.2 °F 4% 29.90 in 10.0 mi SSW 15.0 mph - N/A   Scattered Clouds
4:35 PM 37.4 °F 29.8 °F -56.2 °F 4% 29.90 in 10.0 mi South 11.5 mph - N/A   Partly Cloudy
4:55 PM 37.4 °F 29.8 °F -56.2 °F 4% 29.90 in 9.0 mi SW 11.5 mph - N/A   Clear
5:15 PM 37.4 °F 30.8 °F -56.2 °F 4% 29.89 in 9.0 mi SSW 9.2 mph - N/A   Clear
5:35 PM 37.4 °F 30.8 °F -54.4 °F 4% 29.90 in 9.0 mi SSW 9.2 mph - N/A   Clear
5:55 PM 39.2 °F 32.5 °F -54.4 °F 4% 29.88 in 9.0 mi SSW 10.4 mph - N/A   Clear
6:15 PM 39.2 °F 34.2 °F -54.4 °F 4% 29.90 in 9.0 mi SW 6.9 mph - N/A   Clear
6:35 PM 39.2 °F 32.5 °F -54.4 °F 4% 29.91 in 9.0 mi West 10.4 mph - N/A   Clear
6:55 PM 39.2 °F 32.0 °F -54.4 °F 4% 29.91 in 9.0 mi West 11.5 mph - N/A   Partly Cloudy
7:15 PM 37.4 °F 30.8 °F -54.4 °F 4% 29.91 in 8.0 mi West 9.2 mph - N/A   Scattered Clouds
7:35 PM 39.2 °F 32.0 °F -54.4 °F 4% 29.92 in 10.0 mi WNW 11.5 mph - N/A   Partly Cloudy
7:55 PM 37.4 °F 32.1 °F -56.2 °F 4% 29.93 in 10.0 mi NW 6.9 mph - N/A   Clear
8:15 PM 37.4 °F 32.8 °F -56.2 °F 4% 29.93 in 10.0 mi WNW 5.8 mph - N/A   Clear
8:35 PM 37.4 °F 29.3 °F -56.2 °F 4% 29.93 in 10.0 mi NW 12.7 mph - N/A   Clear
8:55 PM 37.4 °F 29.3 °F -54.4 °F 4% 29.94 in 10.0 mi NW 12.7 mph 18.4 mph N/A   Clear
9:15 PM 39.2 °F 29.3 °F -54.4 °F 4% 29.94 in 10.0 mi NW 20.7 mph 27.6 mph N/A   Clear
9:35 PM 37.4 °F 26.9 °F -54.4 °F 4% 29.96 in 10.0 mi WNW 20.7 mph 28.8 mph N/A   Clear
9:55 PM 37.4 °F 26.6 °F -54.4 °F 4% 29.96 in 10.0 mi WNW 21.9 mph 27.6 mph N/A   Clear
10:15 PM 37.4 °F 28.2 °F -56.2 °F 4% 29.98 in 10.0 mi NW 16.1 mph 21.9 mph N/A   Clear
10:35 PM 35.6 °F 27.5 °F -56.2 °F 4% 29.98 in 10.0 mi WNW 11.5 mph - N/A   Clear
10:55 PM 35.6 °F 26.6 °F -56.2 °F 4% 29.99 in 10.0 mi West 13.8 mph - N/A   Clear
11:15 PM 35.6 °F 26.6 °F -58.0 °F 4% 29.99 in 10.0 mi WNW 13.8 mph - N/A   Clear
11:35 PM 35.6 °F 25.9 °F -56.2 °F 4% 29.99 in 10.0 mi WNW 16.1 mph 21.9 mph N/A   Clear
11:55 PM 35.6 °F 25.9 °F -56.2 °F 4% 30.00 in 10.0 mi WNW 16.1 mph 21.9 mph N/A   Clear